Zurück zum Katalog

YUNYAO-1 19

AktivWissenschaftVLEO
NORAD 58759·PAYLOAD·🇨🇳 China

Gestartet Jan 11, 2024 von Yellow Sea Launch Area

Loading…

Nächste Überflüge (nächste 24 Stunden)

TLE

AktuellSource: Space-Track

Epoche: Sep 14, 2026, 15:03 UTC

1 58759U 24009B   26257.62710618  .00007628  00000-0  36989-3 0  9993
2 58759  49.9838  89.6800 0004918 281.7825  78.2576 15.19368944148269

Verfolge YUNYAO-1 19 in Echtzeit mit AllMySat

Download on the App Store